Miscellaneous Local Product
Issued by NWS North Platte, NE

Home | Current Version | Previous Version | Graphics & Text | Print | Product List | Glossary On
Versions: 1 2 3 4 5 6 7 8 9 10 11 12 13 14 15 16 17 18 19 20 21 22 23 24 25 26 27 28 29 30 31 32 33 34 35 36 37 38 39 40 41 42 43 44 45 46 47 48 49 50
242
AXUS43 KLBF 200010
MISLBF


WESTERN AND NORTH CENTRAL NEBRASKA HOURLY WEATHER ROUNDUP
NATIONAL WEATHER SERVICE NORTH PLATTE NE
700 PM CDT THU OCT 19 2017

NOTE: "FAIR" INDICATES FEW OR NO CLOUDS BELOW 12,000 FEET WITH NO
SIGNIFICANT WEATHER AND/OR OBSTRUCTIONS TO VISIBILITY.

NOTE: STATIONS NOT REPORTING VARIABLES SUCH AS SKY/WEATHER OR
PRESSURE ARE PROVIDED BY RAWS AND APRS NETWORKS AND ARE NOT UNDER
NATIONAL WEATHER SERVICE QUALITY CONTROL.

...OBSERVATIONS IN AND NEAR THE EASTERN PANHANDLE OF NEBRASKA...

CITY           SKY/WX    TMP DP  RH WIND       PRES   REMARKS
PINE RIDGE     CLEAR     75  30  19 SE5       29.80F
GORDON         FAIR      72  33  24 S6        29.83S
CHADRON        CLEAR     71  25  17 S9        29.78F
ALLIANCE       CLEAR     64  36  35 VRB3G20   29.83F
SIDNEY         CLOUDY    69  34  27 S13       29.89F
$$

...OBSERVATIONS IN NORTHERN NEBRASKA AND FAR SOUTHERN SOUTH DAKOTA...

CITY           SKY/WX    TMP DP  RH WIND       PRES   REMARKS
WINNER         FAIR      73  43  33 S15       29.79S
VALENTINE      CLEAR     75  38  26 S13       29.83R
THEDFORD       CLEAR     71  45  39 S10       29.89S
AINSWORTH      CLEAR     67  46  47 S8        29.87S
O`NEILL        CLEAR     68  49  49 S9        29.89S
ORD            CLEAR     72  48  42 SE8       29.89F
BROKEN BOW     CLEAR     69  50  50 SE8       29.90F
VALENTINE NWR    N/A     76  40  27 S9G18       N/A
HALSEY           N/A     74  43  32 S9G17       N/A
BUTTE            N/A     70  47  43 SE10        N/A
CHAMBERS         N/A     65  44  46 CALM        N/A
EWING            N/A     70  48  44 S5          N/A
$$

...OBSERVATIONS IN SOUTHWEST NEBRASKA AND FAR NORTHEAST COLORADO...

CITY           SKY/WX    TMP DP  RH WIND       PRES   REMARKS
HOLYOKE        FAIR      73  41  31 S12       29.89S
IMPERIAL       CLOUDY    71  42  35 SE12      29.89F
OGALLALA       CLOUDY    74  42  31 S8        29.87F
NORTH PLATTE   CLEAR     71  47  42 SE7       29.89S
MCCOOK         CLEAR     72  46  39 SE9       29.90F
LEXINGTON      CLEAR     70  48  44 S9        29.91S
STAPLETON        N/A     70  49  47 CALM        N/A
GOTHENBURG       N/A     79  45  29 S8          N/A
CALLAWAY         N/A     77  51  39 S12         N/A
$$

...OBSERVATIONS IN CENTRAL LINCOLN COUNTY AREA...

CITY           SKY/WX    TMP DP  RH WIND       PRES   REMARKS
N.P. AIRPORT   CLEAR     71  47  42 SE7       29.89S
N.P. DOWNTOWN    N/A     72  49  44 CALM        N/A
N.P. SOUTHEAST   N/A     72  47  41 E3          N/A
N.P. HILLCREST   N/A     72  48  42 S9          N/A
$$

...SOME OBSERVATIONS FROM AROUND THE REGION...

CITY           SKY/WX    TMP DP  RH WIND       PRES   REMARKS
DENVER         CLOUDY    65  30  27 NE5       29.91F
LIMON          CLOUDY    61  34  36 SE13      29.97F
ASPEN          CLOUDY    61  22  22 N13       30.07S
LARAMIE        CLOUDY    61  23  23 SW7       30.01F
CASPER         CLEAR     65  14  14 SW14      29.86S
CHEYENNE       CLOUDY    61  31  32 SW3       29.96F
SCOTTSBLUFF    CLOUDY    68  30  24 SE6       29.83F
GRAND ISLAND   CLEAR     71  51  49 SE9       29.94S
OMAHA          PTCLDY    68  54  60 SE8       29.97S
SIOUX FALLS    CLEAR     70  52  52 S15       29.88F
PIERRE         CLEAR     68  39  34 SE7       29.71F
RAPID CITY     CLEAR     69  20  15 S9        29.75F
BISMARCK       CLEAR     62  39  42 S10       29.70F
KANSAS CITY    PTCLDY    63  52  67 S9        30.05S
HILL CITY      CLEAR     75  41  29 S13       29.94S
WICHITA        MOCLDY    70  49  47 S13       30.03S
DODGE CITY     CLEAR     72  41  32 SE15      29.98S
OKLAHOMA CITY  MOCLDY    66  49  54 SE9       30.06S
DALLAS         MOCLDY    77  54  44 SE12      30.05S
AMARILLO       PTCLDY    70  48  45 SE15      30.02S
$$




USA.gov is the U.S. government's official web portal to all federal, state and local government web resources and services.